Flag for Norway Weather past 2 weeks in Drammen, Norway

Now
48 °F

Sprinkles. Overcast.


Feels Like: 43 °F
Forecast: 47 / 68 °F
Wind: 14 mph from West

Location: Oslo / Fornebu

Current Time: Jul 31, 2015 at 12:32:06 PM

Latest Report: Jul 31, 2015 at 11:50 AM


Visibility: N/A

Pressure: 29.92 "Hg

Humidity: 82%

Dew point: 43 °F

Location of DrammenLocation

Historic Weather in Drammen — Graph

°F

Drammen temperature yesterday

Maximum temperature yesterday: 52 °F (at 12:20 AM)
Minimum temperature yesterday: 50 °F (at 1:50 AM)
Average temperature yesterday: 51 °F

Past Weeks' High & Low Weather Summary

 TemperatureHumidityPressure
High61 °F (Jul 16, 6:50 PM)100% (Jul 18, 3:20 AM)30.18 "Hg (Jul 18, 3:20 AM)
Low46 °F (Jul 31, 5:20 AM)59% (Jul 16, 6:50 PM)29.36 "Hg (Jul 18, 2:20 PM)
Average53 °F83%29.71 "Hg
* Reported Jul 16 11:20 AM — Jul 31 11:20 AM, Drammen, Weather by CustomWeather, © 2015

Note: Actual official high and low records may vary slightly from our data, if they occured in-between our weather recording intervals... More about our weather records

Advertising

Drammen weather history for previous 24 hours

 ConditionsComfort  
Time TempWeatherWind HumidityBarometerVisibility
11:20 AM
Fri, Jul 31
46 °FLight rain. Partly sunny.16 mph93%29.92 "Hg4 mi
10:50 AM48 °FPartly sunny.16 mph87%29.92 "HgN/A
10:20 AM48 °FSprinkles. Partly sunny.13 mph87%29.92 "HgN/A
9:50 AM48 °FDrizzle. Partly sunny.17 mph87%29.92 "HgN/A
9:20 AM50 °FPartly sunny.12 mph82%29.92 "HgN/A
8:50 AM50 °FPartly sunny.12 mph71%29.92 "HgN/A
8:20 AM50 °FOvercast.15 mph71%29.89 "HgN/A
7:50 AM50 °FPartly sunny.15 mph71%29.89 "HgN/A
7:20 AM50 °FOvercast.16 mph71%29.89 "HgN/A
6:50 AM50 °FOvercast.16 mph71%29.89 "HgN/A
6:20 AM48 °FPartly sunny.16 mph82%29.89 "HgN/A
5:50 AM48 °FPassing clouds.16 mph82%29.89 "HgN/A
5:20 AM46 °FPassing clouds.20 mph93%29.89 "HgN/A
4:50 AM48 °FLight rain. Partly cloudy.17 mph87%29.89 "Hg5 mi
4:20 AM48 °FPassing clouds.18 mph87%29.89 "HgN/A
3:50 AM48 °FSprinkles. Passing clouds.21 mph87%29.89 "HgN/A
3:20 AM48 °FPassing clouds.18 mph82%29.89 "HgN/A
2:50 AM48 °FPassing clouds.17 mph82%29.89 "HgN/A
2:20 AM48 °FSprinkles. Passing clouds.15 mph87%29.89 "HgN/A
1:50 AM48 °FSprinkles. Partly cloudy.21 mph87%29.89 "HgN/A
1:20 AM48 °FSprinkles. Overcast.14 mph87%29.89 "HgN/A
12:50 AM50 °FPassing clouds.21 mph82%29.89 "HgN/A
11:50 PM
Thu, Jul 30
50 °FPassing clouds.22 mph82%29.89 "HgN/A
11:20 PM50 °FPassing clouds.20 mph82%29.89 "HgN/A
10:50 PM50 °FPartly sunny.20 mph76%29.89 "HgN/A
10:20 PM50 °FOvercast.20 mph76%29.89 "HgN/A
9:50 PM50 °FPartly sunny.20 mph76%29.89 "HgN/A
9:20 PM52 °FPartly sunny.23 mph72%29.89 "HgN/A
8:50 PM52 °FScattered clouds.21 mph77%29.89 "HgN/A
8:20 PM52 °FPartly sunny.23 mph77%29.86 "HgN/A
7:50 PM52 °FPartly sunny.21 mph77%29.86 "HgN/A
7:20 PM52 °FBroken clouds.22 mph77%29.86 "HgN/A
6:50 PM52 °FPartly sunny.22 mph77%29.86 "HgN/A
6:20 PM52 °FPartly sunny.24 mph82%29.86 "HgN/A
5:50 PM52 °FPartly sunny.21 mph77%29.86 "HgN/A
5:20 PM52 °FPartly sunny.23 mph77%29.86 "HgN/A
4:50 PM52 °FPartly sunny.22 mph82%29.86 "HgN/A
4:20 PM52 °FPassing clouds.22 mph77%29.86 "HgN/A
3:50 PM52 °FScattered clouds.22 mph72%29.83 "HgN/A
3:20 PM52 °FPartly sunny.18 mph77%29.83 "HgN/A
2:50 PM50 °FLight rain. Partly sunny.25 mph82%29.83 "HgN/A
2:20 PM52 °FScattered clouds.23 mph77%29.83 "HgN/A
1:50 PM52 °FPartly sunny.24 mph77%29.83 "HgN/A
1:20 PM52 °FScattered clouds.23 mph72%29.80 "HgN/A
12:50 PM52 °FPartly sunny.24 mph77%29.80 "HgN/A
12:20 PM50 °FPartly sunny.25 mph82%29.80 "HgN/A
Weather by CustomWeather, © 2015

See weather overviewHow to use our weather pages